sat.trackr.live / text

‹ back to catalog

STARLINK-32334

NORAD 62023 · 2024-213R

PAYLOAD ACTIVE UNKNOWN

§ Identity

Operator
Country
US
Launch date
2024-11-18
Launch site
AFWTR
Launch vehicle
Mass (kg)
RCS (m²)

Purposes: comms

External: N2YO · Heavens-Above · Gunter

§ Orbital elements

Epoch: 2026-09-21T05:30:16.953696Z

Period
93.85 min
Inclination
53.1586°
Eccentricity
0.0001073
Mean motion
15.34396709 rev/d
Perigee alt
462.0 km
Apogee alt
463.4 km
Semi-major
6,840.9 km
B*
3.9543e-4
RAAN
338.3843°
Arg perigee
86.1482°
Mean anomaly
273.9643°
Rev number
10,311

§ Raw data

STARLINK-323341 62023U 24213R   26264.22936289  .00013006  00000+0  39543-3 0  99922 62023  53.1586 338.3843 0001073  86.1482 273.9643 15.34396709103112

JSON: /api/v1/satellites/62023 · /tle

For live sub-satellite position, see the globe view (requires WebGL).

§ Visibility from observer

Set your observer location to see the next 7 days of passes ≥ 10°. The values pass through the URL so the page stays shareable.

No JS? Fill the form by hand. The geolocation button needs JavaScript.